• In Netherlands
  • List of Countries
  • For 7 days
  • Water Temperature
  • Satellite Maps
  • Weather Map
  • Weather Widgets
  • user-avatar
    Login

    Hourly Weather Bregenz

    Today, 21 September, Friday

    Time Temperature Precipitation Wind Pressure Humidity
    00:00 +12°C° 0 mm 2 mps 648 mmHg 80%
    01:00 +12°C° 0 mm 2 mps 648 mmHg 81%
    02:00 +12°C° 0 mm 2 mps 648 mmHg 81%
    03:00 +12°C° 0 mm 2 mps 647 mmHg 82%
    04:00 +10°C° 0 mm 2 mps 647 mmHg 83%
    05:00 +12°C° 0 mm 2 mps 647 mmHg 82%
    06:00 +12°C° 0 mm 2 mps 647 mmHg 82%
    07:00 +13°C° 0 mm 2 mps 647 mmHg 82%
    08:00 +15°C° 0 mm 2 mps 648 mmHg 74%
    09:00 +17°C° 0 mm 2 mps 648 mmHg 65%
    10:00 +20°C° 0 mm 2 mps 649 mmHg 56%
    11:00 +20°C° 0.1 mm 2 mps 649 mmHg 55%
    12:00 +21°C° 0.1 mm 3 mps 649 mmHg 54%
    13:00 +21°C° 0.1 mm 3 mps 649 mmHg 52%
    14:00 +20°C° 0.6 mm 3 mps 648 mmHg 61%
    15:00 +18°C° 0.6 mm 3 mps 648 mmHg 69%
    16:00 +17°C° 0.6 mm 3 mps 648 mmHg 78%
    17:00 +16°C° 0.5 mm 3 mps 648 mmHg 82%
    18:00 +13°C° 0.5 mm 3 mps 648 mmHg 86%
    19:00 +13°C° 0.5 mm 2 mps 648 mmHg 90%
    20:00 +12°C° 0.7 mm 3 mps 648 mmHg 92%
    21:00 +11°C° 0.7 mm 3 mps 649 mmHg 94%
    22:00 +10°C° 0.7 mm 3 mps 649 mmHg 96%
    23:00 +9°C° 0.4 mm 2 mps 649 mmHg 96%

    Tomorrow, 22 September, Saturday

    Time Temperature Precipitation Wind Pressure Humidity
    00:00 +9°C° 0.4 mm 2 mps 649 mmHg 96%
    01:00 +9°C° 0.4 mm 1 mps 649 mmHg 96%
    02:00 +9°C° 0.1 mm 1 mps 649 mmHg 96%
    03:00 +8°C° 0.1 mm 1 mps 649 mmHg 96%
    04:00 +8°C° 0.1 mm 1 mps 649 mmHg 96%
    05:00 +7°C° 0 mm 1 mps 649 mmHg 96%
    06:00 +7°C° 0 mm 1 mps 649 mmHg 96%
    07:00 +7°C° 0 mm 1 mps 649 mmHg 96%
    08:00 +8°C° 0 mm 1 mps 650 mmHg 90%
    09:00 +10°C° 0 mm 1 mps 650 mmHg 84%
    10:00 +11°C° 0 mm 1 mps 650 mmHg 78%
    11:00 +12°C° 0 mm 1 mps 650 mmHg 72%
    12:00 +13°C° 0 mm 1 mps 651 mmHg 65%
    13:00 +14°C° 0 mm 2 mps 651 mmHg 59%
    14:00 +14°C° 0 mm 2 mps 650 mmHg 60%
    15:00 +14°C° 0 mm 2 mps 650 mmHg 60%
    16:00 +14°C° 0 mm 2 mps 650 mmHg 61%
    17:00 +13°C° 0 mm 2 mps 650 mmHg 68%
    18:00 +11°C° 0 mm 1 mps 650 mmHg 74%
    19:00 +10°C° 0 mm 1 mps 650 mmHg 81%
    20:00 +10°C° 0 mm 1 mps 650 mmHg 81%
    21:00 +10°C° 0 mm 1 mps 650 mmHg 80%
    22:00 +10°C° 0 mm 1 mps 651 mmHg 80%
    23:00 +10°C° 0 mm 1 mps 651 mmHg 80%

    Day after tomorrow, 23 September, Sunday

    Time Temperature Precipitation Wind Pressure Humidity
    00:00 +10°C° 0 mm 1 mps 650 mmHg 81%
    01:00 +10°C° 0 mm 1 mps 650 mmHg 81%
    02:00 +10°C° 0 mm 1 mps 650 mmHg 80%
    03:00 +10°C° 0 mm 1 mps 650 mmHg 80%
    04:00 +10°C° 0 mm 2 mps 650 mmHg 79%
    05:00 +10°C° 0.1 mm 2 mps 650 mmHg 80%
    06:00 +10°C° 0.1 mm 2 mps 650 mmHg 82%
    07:00 +10°C° 0.1 mm 2 mps 650 mmHg 83%
    08:00 +13°C° 0.1 mm 2 mps 650 mmHg 81%
    09:00 +14°C° 0.1 mm 2 mps 650 mmHg 79%
    10:00 +15°C° 0.1 mm 2 mps 651 mmHg 77%
    11:00 +17°C° 0 mm 3 mps 651 mmHg 72%
    12:00 +18°C° 0 mm 3 mps 651 mmHg 67%
    13:00 +20°C° 0 mm 3 mps 651 mmHg 62%
    14:00 +20°C° 0.1 mm 3 mps 651 mmHg 64%
    15:00 +20°C° 0.1 mm 3 mps 650 mmHg 65%
    16:00 +20°C° 0.1 mm 3 mps 650 mmHg 67%
    17:00 +18°C° 0.2 mm 3 mps 649 mmHg 75%
    18:00 +16°C° 0.2 mm 2 mps 649 mmHg 82%
    19:00 +14°C° 0.2 mm 2 mps 648 mmHg 90%
    20:00 +13°C° 0.6 mm 3 mps 648 mmHg 91%
    21:00 +13°C° 0.6 mm 4 mps 648 mmHg 92%
    22:00 +12°C° 0.6 mm 4 mps 647 mmHg 93%
    23:00 +12°C° 1.1 mm 5 mps 647 mmHg 94%

    24 September, Monday

    Time Temperature Precipitation Wind Pressure Humidity
    00:00 +11°C° 1.1 mm 6 mps 647 mmHg 94%
    01:00 +11°C° 1.1 mm 6 mps 647 mmHg 95%
    02:00 +10°C° 1.2 mm 6 mps 648 mmHg 95%
    03:00 +9°C° 1.2 mm 5 mps 648 mmHg 95%
    04:00 +8°C° 1.2 mm 4 mps 649 mmHg 95%
    05:00 +6°C° 0.8 mm 4 mps 649 mmHg 95%
    06:00 +5°C° 0.8 mm 3 mps 649 mmHg 95%
    07:00 +4°C° 0.8 mm 3 mps 650 mmHg 95%
    08:00 +4°C° 0.1 mm 3 mps 650 mmHg 92%
    09:00 +4°C° 0.1 mm 3 mps 650 mmHg 90%
    10:00 +4°C° 0.1 mm 3 mps 651 mmHg 87%
    11:00 +5°C° 0 mm 3 mps 651 mmHg 83%
    12:00 +5°C° 0 mm 3 mps 652 mmHg 79%
    13:00 +7°C° 0 mm 3 mps 652 mmHg 76%
    14:00 +7°C° 0 mm 3 mps 652 mmHg 74%
    15:00 +7°C° 0 mm 3 mps 652 mmHg 73%
    16:00 +7°C° 0 mm 3 mps 652 mmHg 72%
    17:00 +5°C° 0 mm 3 mps 653 mmHg 76%
    18:00 +3°C° 0 mm 3 mps 653 mmHg 80%
    19:00 +3°C° 0 mm 2 mps 653 mmHg 84%
    20:00 +3°C° 0 mm 2 mps 654 mmHg 85%
    21:00 +2°C° 0 mm 2 mps 654 mmHg 87%
    22:00 +1°C° 0 mm 2 mps 654 mmHg 88%
    23:00 +1°C° 0 mm 2 mps 654 mmHg 88%

    25 September, Tuesday

    Time Temperature Precipitation Wind Pressure Humidity
    00:00 +1°C° 0 mm 2 mps 654 mmHg 88%
    01:00 -1°C° 0 mm 2 mps 654 mmHg 89%
    02:00 -1°C° 0 mm 2 mps 654 mmHg 88%
    03:00 -1°C° 0 mm 2 mps 654 mmHg 87%
    04:00 -1°C° 0 mm 2 mps 654 mmHg 86%
    05:00 -1°C° 0 mm 2 mps 654 mmHg 84%
    06:00 -1°C° 0 mm 2 mps 655 mmHg 81%
    07:00 -1°C° 0 mm 2 mps 655 mmHg 79%
    08:00 +2°C° 0 mm 3 mps 655 mmHg 69%
    09:00 +4°C° 0 mm 3 mps 656 mmHg 59%
    10:00 +7°C° 0 mm 3 mps 656 mmHg 50%
    11:00 +7°C° 0 mm 4 mps 656 mmHg 47%
    12:00 +10°C° 0 mm 4 mps 657 mmHg 44%
    13:00 +11°C° 0 mm 4 mps 657 mmHg 41%
    14:00 +11°C° 0 mm 4 mps 657 mmHg 43%
    15:00 +11°C° 0 mm 4 mps 656 mmHg 45%
    16:00 +10°C° 0 mm 3 mps 656 mmHg 47%
    17:00 +8°C° 0 mm 3 mps 656 mmHg 54%
    18:00 +5°C° 0 mm 3 mps 655 mmHg 61%
    19:00 +4°C° 0 mm 2 mps 655 mmHg 68%
    20:00 +3°C° 0 mm 2 mps 655 mmHg 69%
    21:00 +3°C° 0 mm 2 mps 655 mmHg 69%
    22:00 +3°C° 0 mm 2 mps 655 mmHg 69%
    23:00 +3°C° 0 mm 2 mps 655 mmHg 70%

    26 September, Wednesday

    Time Temperature Precipitation Wind Pressure Humidity
    00:00 +2°C° 0 mm 2 mps 655 mmHg 71%
    01:00 +2°C° 0 mm 2 mps 655 mmHg 72%
    02:00 +2°C° 0 mm 2 mps 655 mmHg 72%
    03:00 +2°C° 0 mm 2 mps 655 mmHg 72%
    04:00 +3°C° 0 mm 1 mps 655 mmHg 72%
    05:00 +4°C° 0 mm 1 mps 655 mmHg 69%
    06:00 +4°C° 0 mm 1 mps 655 mmHg 67%
    07:00 +5°C° 0 mm 1 mps 655 mmHg 64%
    08:00 +8°C° 0 mm 1 mps 656 mmHg 56%
    09:00 +11°C° 0 mm 1 mps 657 mmHg 49%
    10:00 +14°C° 0 mm 1 mps 657 mmHg 42%
    11:00 +15°C° 0 mm 1 mps 657 mmHg 42%
    12:00 +16°C° 0 mm 1 mps 658 mmHg 42%
    13:00 +17°C° 0 mm 2 mps 658 mmHg 42%
    14:00 +18°C° 0 mm 1 mps 658 mmHg 46%
    15:00 +18°C° 0 mm 1 mps 657 mmHg 49%
    16:00 +18°C° 0 mm 1 mps 657 mmHg 52%
    17:00 +14°C° 0 mm 1 mps 656 mmHg 61%
    18:00 +12°C° 0 mm 1 mps 656 mmHg 70%
    19:00 +9°C° 0 mm 1 mps 655 mmHg 79%
    20:00 +9°C° 0 mm 1 mps 655 mmHg 76%
    21:00 +7°C° 0 mm 2 mps 655 mmHg 73%
    22:00 +7°C° 0 mm 2 mps 655 mmHg 70%
    23:00 +7°C° 0 mm 2 mps 655 mmHg 65%
    Show more